Time,TemperatureF,DewpointF,PressureIn,WindDirection,WindDirectionDegrees,WindSpeedMPH,WindSpeedGustMPH,Humidity,HourlyPrecipIn,Conditions,Clouds,dailyrainin,SolarRadiationWatts/m^2,SoftwareType,DateUTC
2013-07-19 00:01:00,69.3,68.1,30.03,NE,46,0.0,0.0,96,0.00,,---,0.00,0.00,VWS V14.01,2013-07-19 04:01:00,
2013-07-19 00:02:00,69.3,68.1,30.03,NE,46,0.0,0.0,96,0.00,,---,0.00,0.00,VWS V14.01,2013-07-19 04:02:00,
2013-07-19 00:03:00,69.3,68.1,30.03,NE,46,0.0,0.0,96,0.00,,---,0.00,0.00,VWS V14.01,2013-07-19 04:03:00,
2013-07-19 00:08:00,69.2,68.0,30.04,NE,46,0.0,0.0,96,0.00,,---,0.00,0.00,VWS V14.01,2013-07-19 04:08:00,
2013-07-19 00:13:00,69.2,68.0,30.04,NE,46,0.0,0.0,96,0.00,,---,0.00,0.00,VWS V14.01,2013-07-19 04:13:00,
2013-07-19 00:18:00,69.1,67.9,30.04,NE,46,0.0,0.0,96,0.00,,---,0.00,0.00,VWS V14.01,2013-07-19 04:18:00,
2013-07-19 00:23:00,69.0,67.8,30.03,NE,46,0.0,0.0,96,0.00,,---,0.00,0.00,VWS V14.01,2013-07-19 04:23:00,
2013-07-19 00:29:00,68.9,67.7,30.03,NE,46,0.0,0.0,96,0.00,,---,0.00,0.00,VWS V14.01,2013-07-19 04:29:00,
2013-07-19 00:34:00,68.8,67.6,30.03,NE,46,0.0,0.0,96,0.00,,---,0.00,0.00,VWS V14.01,2013-07-19 04:34:00,
2013-07-19 00:39:00,68.8,67.6,30.03,NE,46,0.0,0.0,96,0.00,,---,0.00,0.00,VWS V14.01,2013-07-19 04:39:00,
2013-07-19 00:44:00,68.8,67.6,30.03,NE,46,0.0,0.0,96,0.00,,---,0.00,0.00,VWS V14.01,2013-07-19 04:44:00,
2013-07-19 00:49:00,68.6,67.4,30.03,NE,46,0.0,0.0,96,0.00,,---,0.00,0.00,VWS V14.01,2013-07-19 04:49:00,
2013-07-19 00:54:00,68.5,67.3,30.03,NE,46,0.0,0.0,96,0.00,,---,0.00,0.00,VWS V14.01,2013-07-19 04:54:00,
2013-07-19 00:59:00,68.5,67.3,30.02,NE,46,0.0,0.0,96,0.00,,---,0.00,0.00,VWS V14.01,2013-07-19 04:59:00,
2013-07-19 01:04:00,68.5,67.6,30.03,NE,46,0.0,0.0,97,0.00,,---,0.00,0.00,VWS V14.01,2013-07-19 05:04:00,
2013-07-19 01:09:00,68.5,67.6,30.03,NE,46,0.0,0.0,97,0.00,,---,0.00,0.00,VWS V14.01,2013-07-19 05:09:00,
2013-07-19 01:14:00,68.6,67.7,30.03,NE,46,0.0,0.0,97,0.00,,---,0.00,0.00,VWS V14.01,2013-07-19 05:14:00,
2013-07-19 01:20:00,68.6,67.7,30.03,NE,46,0.0,0.0,97,0.00,,---,0.00,0.00,VWS V14.01,2013-07-19 05:20:00,
2013-07-19 01:25:00,68.6,67.7,30.02,NE,46,0.0,0.0,97,0.00,,---,0.00,0.00,VWS V14.01,2013-07-19 05:25:00,
2013-07-19 01:30:00,68.5,67.6,30.02,NE,46,0.0,0.0,97,0.00,,---,0.00,0.00,VWS V14.01,2013-07-19 05:30:00,
2013-07-19 01:35:00,68.4,67.5,30.02,NE,46,0.0,0.0,97,0.00,,---,0.00,0.00,VWS V14.01,2013-07-19 05:35:00,
2013-07-19 01:40:00,68.4,67.5,30.02,NE,46,0.0,0.0,97,0.00,,---,0.00,0.00,VWS V14.01,2013-07-19 05:40:00,
2013-07-19 01:45:00,68.4,67.5,30.02,NE,46,0.0,0.0,97,0.00,,---,0.00,0.00,VWS V14.01,2013-07-19 05:45:00,
2013-07-19 01:50:00,68.3,67.4,30.02,NE,46,0.0,0.0,97,0.00,,---,0.00,0.00,VWS V14.01,2013-07-19 05:50:00,
2013-07-19 01:55:00,68.4,67.5,30.02,NE,46,0.0,0.0,97,0.00,,---,0.00,0.00,VWS V14.01,2013-07-19 05:55:00,
2013-07-19 02:00:00,68.3,67.4,30.02,NE,46,0.0,0.0,97,0.00,,---,0.00,0.00,VWS V14.01,2013-07-19 06:00:00,
2013-07-19 02:05:00,68.3,67.4,30.02,NE,46,0.0,0.0,97,0.00,,---,0.00,0.00,VWS V14.01,2013-07-19 06:05:00,
2013-07-19 02:11:00,68.2,67.3,30.02,NE,46,0.0,0.0,97,0.00,,---,0.00,0.00,VWS V14.01,2013-07-19 06:11:00,
2013-07-19 02:16:00,68.1,67.2,30.02,NE,46,0.0,0.0,97,0.00,,---,0.00,0.00,VWS V14.01,2013-07-19 06:16:00,
2013-07-19 02:21:00,68.0,67.1,30.02,NE,46,0.0,0.0,97,0.00,,---,0.00,0.00,VWS V14.01,2013-07-19 06:21:00,
2013-07-19 02:26:00,68.0,67.1,30.02,NE,46,0.0,0.0,97,0.00,,---,0.00,0.00,VWS V14.01,2013-07-19 06:26:00,
2013-07-19 02:31:00,68.0,67.1,30.02,NE,46,0.0,0.0,97,0.00,,---,0.00,0.00,VWS V14.01,2013-07-19 06:31:00,
2013-07-19 02:36:00,67.9,67.0,30.01,NE,46,0.0,0.0,97,0.00,,---,0.00,0.00,VWS V14.01,2013-07-19 06:36:00,
2013-07-19 02:41:00,67.9,67.0,30.01,NE,46,0.0,0.0,97,0.00,,---,0.00,0.00,VWS V14.01,2013-07-19 06:41:00,
2013-07-19 02:46:00,68.0,67.1,30.01,NE,46,0.0,0.0,97,0.00,,---,0.00,0.00,VWS V14.01,2013-07-19 06:46:00,
2013-07-19 02:51:00,68.0,67.1,30.01,NE,46,0.0,0.0,97,0.00,,---,0.00,0.00,VWS V14.01,2013-07-19 06:51:00,
2013-07-19 02:56:00,67.9,67.0,30.01,NE,46,0.0,0.0,97,0.00,,---,0.00,0.00,VWS V14.01,2013-07-19 06:56:00,
2013-07-19 03:02:00,67.8,66.9,30.01,NE,46,0.0,0.0,97,0.00,,---,0.00,0.00,VWS V14.01,2013-07-19 07:02:00,
2013-07-19 03:07:00,67.7,66.8,30.00,NE,46,0.0,0.0,97,0.00,,---,0.00,0.00,VWS V14.01,2013-07-19 07:07:00,
2013-07-19 03:12:00,67.6,66.7,30.00,NE,46,0.0,0.0,97,0.00,,---,0.00,0.00,VWS V14.01,2013-07-19 07:12:00,
2013-07-19 03:17:00,67.5,66.6,30.00,NE,46,0.0,0.0,97,0.00,,---,0.00,0.00,VWS V14.01,2013-07-19 07:17:00,
2013-07-19 03:22:00,67.6,66.7,30.00,NE,46,0.0,0.0,97,0.00,,---,0.00,0.00,VWS V14.01,2013-07-19 07:22:00,
2013-07-19 03:27:00,67.6,66.7,30.00,NE,46,0.0,0.0,97,0.00,,---,0.00,0.00,VWS V14.01,2013-07-19 07:27:00,
2013-07-19 03:32:00,67.6,67.0,30.00,NE,46,0.0,0.0,98,0.00,,---,0.00,0.00,VWS V14.01,2013-07-19 07:32:00,
2013-07-19 03:37:00,67.6,67.0,30.00,NE,46,0.0,0.0,98,0.00,,---,0.00,0.00,VWS V14.01,2013-07-19 07:37:00,
2013-07-19 03:43:00,67.6,67.0,30.00,NE,46,0.0,0.0,98,0.00,,---,0.00,0.00,VWS V14.01,2013-07-19 07:43:00,
2013-07-19 03:48:00,67.6,67.0,30.00,NE,46,0.0,0.0,98,0.00,,---,0.00,0.00,VWS V14.01,2013-07-19 07:48:00,
2013-07-19 03:53:00,67.5,66.9,30.00,NE,46,0.0,0.0,98,0.00,,---,0.00,0.00,VWS V14.01,2013-07-19 07:53:00,
2013-07-19 03:58:00,67.4,66.8,30.00,NE,46,0.0,0.0,98,0.00,,---,0.00,0.00,VWS V14.01,2013-07-19 07:58:00,
2013-07-19 04:03:00,67.5,66.9,30.00,NE,46,0.0,0.0,98,0.00,,---,0.00,0.00,VWS V14.01,2013-07-19 08:03:00,
2013-07-19 04:08:00,67.4,66.8,29.99,NE,46,0.0,0.0,98,0.00,,---,0.00,0.00,VWS V14.01,2013-07-19 08:08:00,
2013-07-19 04:13:00,67.4,66.8,29.99,NE,46,0.0,0.0,98,0.00,,---,0.00,0.00,VWS V14.01,2013-07-19 08:13:00,
2013-07-19 04:18:00,67.2,66.6,30.00,NE,46,0.0,0.0,98,0.00,,---,0.00,0.00,VWS V14.01,2013-07-19 08:18:00,
2013-07-19 04:23:00,67.2,66.6,30.00,NE,46,0.0,0.0,98,0.00,,---,0.00,0.00,VWS V14.01,2013-07-19 08:23:00,
2013-07-19 04:29:00,67.2,66.6,29.99,NE,46,0.0,0.0,98,0.00,,---,0.00,0.00,VWS V14.01,2013-07-19 08:29:00,
2013-07-19 04:34:00,67.3,66.7,29.99,NE,46,0.0,0.0,98,0.00,,---,0.00,0.00,VWS V14.01,2013-07-19 08:34:00,
2013-07-19 04:39:00,67.3,66.7,30.00,NE,46,0.0,0.0,98,0.00,,---,0.00,0.00,VWS V14.01,2013-07-19 08:39:00,
2013-07-19 04:44:00,67.2,66.6,29.99,NE,46,0.0,0.0,98,0.00,,---,0.00,0.00,VWS V14.01,2013-07-19 08:44:00,
2013-07-19 04:49:00,67.1,66.5,30.00,NE,46,0.0,0.0,98,0.00,,---,0.00,0.00,VWS V14.01,2013-07-19 08:49:00,
2013-07-19 04:54:00,66.9,66.3,29.99,NE,46,0.0,0.0,98,0.00,,---,0.00,0.00,VWS V14.01,2013-07-19 08:54:00,
2013-07-19 04:59:00,66.7,66.1,30.00,NE,46,0.0,0.0,98,0.00,,---,0.00,0.00,VWS V14.01,2013-07-19 08:59:00,
2013-07-19 05:05:00,66.6,66.0,30.00,NE,46,0.0,0.0,98,0.00,,---,0.00,0.00,VWS V14.01,2013-07-19 09:05:00,
2013-07-19 05:10:00,66.6,66.0,29.99,NE,46,0.0,0.0,98,0.00,,---,0.00,0.00,VWS V14.01,2013-07-19 09:10:00,
2013-07-19 05:15:00,66.7,66.1,29.99,NE,46,0.0,0.0,98,0.00,,---,0.00,0.00,VWS V14.01,2013-07-19 09:15:00,
2013-07-19 05:20:00,66.8,66.2,29.99,NE,46,0.0,0.0,98,0.00,,---,0.00,0.00,VWS V14.01,2013-07-19 09:20:00,
2013-07-19 05:25:00,66.9,66.3,30.00,NE,46,0.0,0.0,98,0.00,,---,0.00,0.00,VWS V14.01,2013-07-19 09:25:00,
2013-07-19 05:30:00,66.9,66.3,30.00,NE,46,0.0,0.0,98,0.00,,---,0.00,0.00,VWS V14.01,2013-07-19 09:30:00,
2013-07-19 05:36:00,66.8,66.2,29.99,NE,46,0.0,0.0,98,0.00,,---,0.00,0.00,VWS V14.01,2013-07-19 09:36:00,
2013-07-19 05:41:00,66.8,66.2,29.99,NE,46,0.0,0.0,98,0.00,,---,0.00,0.00,VWS V14.01,2013-07-19 09:41:00,
2013-07-19 05:46:00,66.7,66.1,29.99,NE,46,0.0,0.0,98,0.00,,---,0.00,0.00,VWS V14.01,2013-07-19 09:46:00,
2013-07-19 05:51:00,66.5,65.9,30.00,NE,46,0.0,0.0,98,0.00,,---,0.00,0.00,VWS V14.01,2013-07-19 09:51:00,
2013-07-19 05:56:00,66.4,65.8,30.00,NE,46,0.0,0.0,98,0.00,,---,0.00,0.00,VWS V14.01,2013-07-19 09:56:00,
2013-07-19 06:01:00,66.3,65.7,30.00,NE,46,0.0,0.0,98,0.00,,---,0.00,0.00,VWS V14.01,2013-07-19 10:01:00,
2013-07-19 06:06:00,66.3,65.7,30.00,NE,46,0.0,0.0,98,0.00,,---,0.00,0.00,VWS V14.01,2013-07-19 10:06:00,
2013-07-19 06:11:00,66.5,65.9,29.99,NE,46,0.0,0.0,98,0.00,,---,0.00,0.00,VWS V14.01,2013-07-19 10:11:00,
2013-07-19 06:17:00,66.5,65.9,30.00,NE,47,0.0,0.0,98,0.00,,---,0.00,0.00,VWS V14.01,2013-07-19 10:17:00,
2013-07-19 06:22:00,66.4,65.8,30.00,NE,47,0.0,0.0,98,0.00,,---,0.00,0.00,VWS V14.01,2013-07-19 10:22:00,
2013-07-19 06:27:00,66.4,65.8,30.00,NE,47,0.0,0.0,98,0.00,,---,0.00,0.00,VWS V14.01,2013-07-19 10:27:00,
2013-07-19 06:32:00,66.4,65.8,30.00,NE,47,0.0,0.0,98,0.00,,---,0.00,5.00,VWS V14.01,2013-07-19 10:32:00,
2013-07-19 06:37:00,66.4,65.8,30.00,NE,47,0.0,0.0,98,0.00,,---,0.00,7.00,VWS V14.01,2013-07-19 10:37:00,
2013-07-19 06:42:00,66.4,65.8,30.00,NE,47,0.0,0.0,98,0.00,,---,0.00,11.00,VWS V14.01,2013-07-19 10:42:00,
2013-07-19 06:47:00,66.5,65.9,30.00,NE,47,0.0,0.0,98,0.00,,---,0.00,12.00,VWS V14.01,2013-07-19 10:47:00,
2013-07-19 06:52:00,66.5,65.9,30.00,NE,47,0.0,0.0,98,0.00,,---,0.00,16.00,VWS V14.01,2013-07-19 10:52:00,
2013-07-19 06:57:00,66.5,65.9,30.01,NE,46,0.0,0.0,98,0.00,,---,0.00,19.00,VWS V14.01,2013-07-19 10:57:00,
2013-07-19 07:02:00,66.5,65.9,30.01,NE,46,0.0,0.0,98,0.00,,---,0.00,23.00,VWS V14.01,2013-07-19 11:02:00,
2013-07-19 07:08:00,66.6,66.0,30.00,NE,46,0.0,0.0,98,0.00,,---,0.00,28.00,VWS V14.01,2013-07-19 11:08:00,
2013-07-19 07:13:00,66.6,66.0,30.01,NE,46,0.0,0.0,98,0.00,,---,0.00,35.00,VWS V14.01,2013-07-19 11:13:00,
2013-07-19 07:18:00,66.7,66.1,30.01,NE,46,0.0,0.0,98,0.00,,---,0.00,40.00,VWS V14.01,2013-07-19 11:18:00,
2013-07-19 07:23:00,66.7,66.1,30.01,NE,46,0.0,0.0,98,0.00,,---,0.00,44.00,VWS V14.01,2013-07-19 11:23:00,
2013-07-19 07:28:00,66.8,66.2,30.01,NE,46,0.0,0.0,98,0.00,,---,0.00,51.00,VWS V14.01,2013-07-19 11:28:00,
2013-07-19 07:33:00,67.0,66.4,30.01,NE,46,0.0,0.0,98,0.00,,---,0.00,58.00,VWS V14.01,2013-07-19 11:33:00,
2013-07-19 07:38:00,67.1,66.5,30.02,NE,46,0.0,0.0,98,0.00,,---,0.00,65.00,VWS V14.01,2013-07-19 11:38:00,
2013-07-19 07:43:00,67.2,66.6,30.02,NE,46,0.0,0.0,98,0.00,,---,0.00,62.00,VWS V14.01,2013-07-19 11:43:00,
2013-07-19 07:48:00,67.4,67.1,30.02,NE,46,0.0,0.0,99,0.00,,---,0.00,72.00,VWS V14.01,2013-07-19 11:48:00,
2013-07-19 07:53:00,67.6,67.3,30.02,NE,46,0.0,0.0,99,0.00,,---,0.00,123.00,VWS V14.01,2013-07-19 11:53:00,
2013-07-19 07:59:00,67.8,67.5,30.02,NE,46,0.0,0.0,99,0.00,,---,0.00,90.00,VWS V14.01,2013-07-19 11:59:00,
2013-07-19 08:04:00,68.2,67.9,30.02,NE,46,0.0,0.0,99,0.00,,---,0.00,86.00,VWS V14.01,2013-07-19 12:04:00,
2013-07-19 08:09:00,68.6,68.3,30.02,NE,46,0.0,0.0,99,0.00,,---,0.00,84.00,VWS V14.01,2013-07-19 12:09:00,
2013-07-19 08:14:00,68.8,68.5,30.03,NE,46,0.0,0.0,99,0.00,,---,0.00,86.00,VWS V14.01,2013-07-19 12:14:00,
2013-07-19 08:19:00,68.9,68.6,30.03,NE,46,0.0,0.0,99,0.00,,---,0.00,81.00,VWS V14.01,2013-07-19 12:19:00,
2013-07-19 08:24:00,69.2,68.9,30.03,NE,46,0.0,0.0,99,0.00,,---,0.00,98.00,VWS V14.01,2013-07-19 12:24:00,
2013-07-19 08:29:00,69.4,69.1,30.03,NE,46,0.0,0.0,99,0.00,,---,0.00,116.00,VWS V14.01,2013-07-19 12:29:00,
2013-07-19 08:34:00,69.6,69.3,30.03,NE,46,0.0,1.0,99,0.00,,---,0.00,116.00,VWS V14.01,2013-07-19 12:34:00,
2013-07-19 08:39:00,69.8,69.5,30.03,NE,46,0.0,0.0,99,0.00,,---,0.00,130.00,VWS V14.01,2013-07-19 12:39:00,
2013-07-19 08:44:00,70.0,69.7,30.03,NE,46,0.0,0.0,99,0.00,,---,0.00,162.00,VWS V14.01,2013-07-19 12:44:00,
2013-07-19 08:50:00,70.3,70.0,30.03,NE,46,0.0,0.0,99,0.00,,---,0.00,179.00,VWS V14.01,2013-07-19 12:50:00,
2013-07-19 08:55:00,70.6,70.3,30.03,NE,46,0.0,1.0,99,0.00,,---,0.00,302.00,VWS V14.01,2013-07-19 12:55:00,
2013-07-19 09:00:00,71.3,71.0,30.03,NE,46,0.0,0.0,99,0.00,,---,0.00,325.00,VWS V14.01,2013-07-19 13:00:00,
2013-07-19 09:05:00,71.9,71.6,30.03,NE,46,0.0,1.0,99,0.00,,---,0.00,345.00,VWS V14.01,2013-07-19 13:05:00,
2013-07-19 09:10:00,72.1,71.8,30.03,NE,46,0.0,1.0,99,0.00,,---,0.00,366.00,VWS V14.01,2013-07-19 13:10:00,
2013-07-19 09:15:00,72.2,71.9,30.03,NE,46,0.0,1.0,99,0.00,,---,0.00,388.00,VWS V14.01,2013-07-19 13:15:00,
2013-07-19 09:20:00,72.5,72.2,30.03,NE,46,0.0,1.0,99,0.00,,---,0.00,399.00,VWS V14.01,2013-07-19 13:20:00,
2013-07-19 09:25:00,72.9,72.6,30.03,NE,46,0.0,1.0,99,0.00,,---,0.00,457.00,VWS V14.01,2013-07-19 13:25:00,
2013-07-19 09:26:00,73.1,72.8,30.03,NE,44,0.0,1.0,99,0.00,,---,0.00,438.00,VWS V14.01,2013-07-19 13:26:00,
2013-07-19 09:31:00,74.1,73.8,30.03,NE,46,0.0,0.0,99,0.00,,---,0.00,369.00,VWS V14.01,2013-07-19 13:31:00,
2013-07-19 09:36:00,74.2,73.6,30.03,NE,46,0.0,1.0,98,0.00,,---,0.00,427.00,VWS V14.01,2013-07-19 13:36:00,
2013-07-19 09:42:00,74.7,73.5,30.03,NE,46,0.0,0.0,96,0.00,,---,0.00,494.00,VWS V14.01,2013-07-19 13:42:00,
2013-07-19 09:47:00,75.5,74.0,30.03,NE,46,0.0,1.0,95,0.00,,---,0.00,519.00,VWS V14.01,2013-07-19 13:47:00,
2013-07-19 09:52:00,76.0,73.5,30.03,NE,43,0.0,2.0,92,0.00,,---,0.00,519.00,VWS V14.01,2013-07-19 13:52:00,
2013-07-19 09:57:00,76.4,73.2,30.03,NE,43,0.0,2.0,90,0.00,,---,0.00,520.00,VWS V14.01,2013-07-19 13:57:00,
2013-07-19 10:02:00,76.7,73.2,30.03,NE,36,2.0,2.0,89,0.00,,---,0.00,527.00,VWS V14.01,2013-07-19 14:02:00,
2013-07-19 10:07:00,77.0,73.5,30.03,NE,36,0.0,2.0,89,0.00,,---,0.00,545.00,VWS V14.01,2013-07-19 14:07:00,
2013-07-19 10:12:00,77.4,73.6,30.03,NE,36,0.0,2.0,88,0.00,,---,0.00,571.00,VWS V14.01,2013-07-19 14:12:00,
2013-07-19 10:17:00,77.8,73.6,30.03,NE,36,0.0,2.0,87,0.00,,---,0.00,610.00,VWS V14.01,2013-07-19 14:17:00,
2013-07-19 10:22:00,78.4,73.9,30.02,NE,36,0.0,2.0,86,0.00,,---,0.00,492.00,VWS V14.01,2013-07-19 14:22:00,
2013-07-19 10:28:00,78.5,73.3,30.02,NE,36,0.0,2.0,84,0.00,,---,0.00,295.00,VWS V14.01,2013-07-19 14:28:00,
2013-07-19 10:33:00,78.6,73.7,30.02,NE,36,0.0,1.0,85,0.00,,---,0.00,274.00,VWS V14.01,2013-07-19 14:33:00,
2013-07-19 10:38:00,78.6,73.7,30.03,NE,34,0.0,4.0,85,0.00,,---,0.00,471.00,VWS V14.01,2013-07-19 14:38:00,
2013-07-19 10:43:00,78.6,73.7,30.02,NNE,32,0.0,3.0,85,0.00,,---,0.00,503.00,VWS V14.01,2013-07-19 14:43:00,
2013-07-19 10:48:00,78.9,73.7,30.02,NNE,32,0.0,3.0,84,0.00,,---,0.00,729.00,VWS V14.01,2013-07-19 14:48:00,
2013-07-19 10:53:00,79.3,73.7,30.02,NNE,26,0.0,2.0,83,0.00,,---,0.00,417.00,VWS V14.01,2013-07-19 14:53:00,
2013-07-19 10:58:00,79.5,74.2,30.02,NNE,20,1.0,2.0,84,0.00,,---,0.00,438.00,VWS V14.01,2013-07-19 14:58:00,
2013-07-19 11:03:00,79.6,74.3,30.02,WSW,238,0.0,4.0,84,0.00,,---,0.00,485.00,VWS V14.01,2013-07-19 15:03:00,
2013-07-19 11:09:00,79.7,73.7,30.02,NNW,333,0.0,1.0,82,0.00,,---,0.00,385.00,VWS V14.01,2013-07-19 15:09:00,
2013-07-19 11:14:00,80.0,74.0,30.02,West,269,1.0,1.0,82,0.00,,---,0.00,761.00,VWS V14.01,2013-07-19 15:14:00,
2013-07-19 11:19:00,80.3,74.3,30.02,West,261,0.0,1.0,82,0.00,,---,0.00,545.00,VWS V14.01,2013-07-19 15:19:00,
2013-07-19 11:24:00,80.7,74.7,30.02,West,262,1.0,3.0,82,0.00,,---,0.00,821.00,VWS V14.01,2013-07-19 15:24:00,
2013-07-19 11:29:00,80.7,74.0,30.02,NNW,347,1.0,2.0,80,0.00,,---,0.00,874.00,VWS V14.01,2013-07-19 15:29:00,
2013-07-19 11:34:00,81.1,75.8,30.02,WSW,245,1.0,3.0,84,0.00,,---,0.00,891.00,VWS V14.01,2013-07-19 15:34:00,
2013-07-19 11:39:00,81.6,74.8,30.02,WNW,284,0.0,3.0,80,0.00,,---,0.00,724.00,VWS V14.01,2013-07-19 15:39:00,
2013-07-19 11:44:00,81.8,74.3,30.02,West,275,3.0,3.0,78,0.00,,---,0.00,689.00,VWS V14.01,2013-07-19 15:44:00,
2013-07-19 11:49:00,82.0,75.2,30.03,West,273,0.0,2.0,80,0.00,,---,0.00,1039.00,VWS V14.01,2013-07-19 15:49:00,
2013-07-19 11:54:00,81.9,74.4,30.02,SW,231,5.0,9.0,78,0.00,,---,0.00,322.00,VWS V14.01,2013-07-19 15:54:00,
2013-07-19 12:00:00,81.7,74.9,30.02,SW,221,3.0,4.0,80,0.00,,---,0.00,969.00,VWS V14.01,2013-07-19 16:00:00,
2013-07-19 12:05:00,81.6,74.5,30.02,WSW,242,0.0,6.0,79,0.00,,---,0.00,295.00,VWS V14.01,2013-07-19 16:05:00,
2013-07-19 12:10:00,81.1,74.3,30.02,SW,226,0.0,2.0,80,0.00,,---,0.00,446.00,VWS V14.01,2013-07-19 16:10:00,
2013-07-19 12:15:00,80.8,74.8,30.01,SW,234,2.0,9.0,82,0.00,,---,0.00,617.00,VWS V14.01,2013-07-19 16:15:00,
2013-07-19 12:20:00,80.8,74.8,30.01,WSW,238,6.0,7.0,82,0.00,,---,0.00,404.00,VWS V14.01,2013-07-19 16:20:00,
2013-07-19 12:26:00,80.8,74.8,30.01,SW,235,0.0,11.0,82,0.00,,---,0.00,981.00,VWS V14.01,2013-07-19 16:26:00,
2013-07-19 12:31:00,81.2,74.8,30.01,NNW,329,1.0,9.0,81,0.00,,---,0.00,972.00,VWS V14.01,2013-07-19 16:31:00,
2013-07-19 12:36:00,81.5,75.5,30.01,WSW,240,2.0,9.0,82,0.00,,---,0.00,990.00,VWS V14.01,2013-07-19 16:36:00,
2013-07-19 12:41:00,81.9,75.1,30.01,West,261,0.0,10.0,80,0.00,,---,0.00,1097.00,VWS V14.01,2013-07-19 16:41:00,
2013-07-19 12:46:00,82.3,75.1,30.01,SW,224,5.0,10.0,79,0.00,,---,0.00,297.00,VWS V14.01,2013-07-19 16:46:00,
2013-07-19 12:51:00,82.5,75.7,30.01,WSW,246,0.0,7.0,80,0.00,,---,0.00,967.00,VWS V14.01,2013-07-19 16:51:00,
2013-07-19 12:56:00,82.8,75.6,30.00,WSW,237,3.0,7.0,79,0.00,,---,0.00,538.00,VWS V14.01,2013-07-19 16:56:00,
2013-07-19 13:01:00,82.7,75.5,30.00,WSW,258,3.0,6.0,79,0.00,,---,0.00,984.00,VWS V14.01,2013-07-19 17:01:00,
2013-07-19 13:07:00,82.8,75.2,30.00,WNW,290,3.0,6.0,78,0.00,,---,0.00,935.00,VWS V14.01,2013-07-19 17:07:00,
2013-07-19 13:12:00,82.9,74.9,30.00,WSW,238,4.0,9.0,77,0.00,,---,0.00,851.00,VWS V14.01,2013-07-19 17:12:00,
2013-07-19 13:17:00,82.8,74.1,29.99,NW,308,0.0,9.0,75,0.00,,---,0.00,819.00,VWS V14.01,2013-07-19 17:17:00,
2013-07-19 13:22:00,83.0,75.4,29.99,NW,311,1.0,4.0,78,0.00,,---,0.00,909.00,VWS V14.01,2013-07-19 17:22:00,
2013-07-19 13:27:00,83.3,75.7,29.99,SW,235,0.0,5.0,78,0.00,,---,0.00,575.00,VWS V14.01,2013-07-19 17:27:00,
2013-07-19 13:32:00,83.3,75.3,29.99,SW,235,0.0,1.0,77,0.00,,---,0.00,274.00,VWS V14.01,2013-07-19 17:32:00,
2013-07-19 13:37:00,82.9,74.9,29.98,SW,235,0.0,3.0,77,0.00,,---,0.00,323.00,VWS V14.01,2013-07-19 17:37:00,
2013-07-19 13:42:00,82.5,74.6,29.98,NW,318,0.0,3.0,77,0.00,,---,0.00,410.00,VWS V14.01,2013-07-19 17:42:00,
2013-07-19 13:47:00,82.3,73.6,29.98,SSW,207,0.0,7.0,75,0.00,,---,0.00,445.00,VWS V14.01,2013-07-19 17:47:00,
2013-07-19 13:53:00,82.5,74.9,29.98,SSW,211,0.0,2.0,78,0.00,,---,0.00,526.00,VWS V14.01,2013-07-19 17:53:00,
2013-07-19 13:58:00,82.6,74.3,29.97,SSW,211,0.0,2.0,76,0.00,,---,0.00,258.00,VWS V14.01,2013-07-19 17:58:00,
2013-07-19 14:03:00,82.5,74.2,29.97,SSW,213,0.0,3.0,76,0.00,,---,0.00,715.00,VWS V14.01,2013-07-19 18:03:00,
2013-07-19 14:08:00,82.7,74.8,29.97,SSW,213,0.0,3.0,77,0.00,,---,0.00,733.00,VWS V14.01,2013-07-19 18:08:00,
2013-07-19 14:13:00,82.9,73.8,29.97,SW,220,0.0,3.0,74,0.00,,---,0.00,893.00,VWS V14.01,2013-07-19 18:13:00,
2013-07-19 14:18:00,83.4,74.7,29.97,SW,220,0.0,3.0,75,0.00,,---,0.00,1020.00,VWS V14.01,2013-07-19 18:18:00,
2013-07-19 14:23:00,83.9,76.7,29.96,SW,221,1.0,1.0,79,0.00,,---,0.00,1034.00,VWS V14.01,2013-07-19 18:23:00,
2013-07-19 14:28:00,84.8,77.2,29.96,West,265,0.0,4.0,78,0.00,,---,0.00,972.00,VWS V14.01,2013-07-19 18:28:00,
2013-07-19 14:33:00,85.2,75.2,29.96,West,270,0.0,4.0,72,0.00,,---,0.00,1060.00,VWS V14.01,2013-07-19 18:33:00,
2013-07-19 14:39:00,85.6,76.8,29.95,West,272,2.0,3.0,75,0.00,,---,0.00,1069.00,VWS V14.01,2013-07-19 18:39:00,
2013-07-19 14:44:00,85.8,75.7,29.95,West,269,0.0,4.0,72,0.00,,---,0.00,1095.00,VWS V14.01,2013-07-19 18:44:00,
2013-07-19 14:49:00,85.8,75.7,29.95,West,269,0.0,1.0,72,0.00,,---,0.00,1208.00,VWS V14.01,2013-07-19 18:49:00,
2013-07-19 14:54:00,86.2,75.3,29.95,WSW,246,1.0,5.0,70,0.00,,---,0.00,1139.00,VWS V14.01,2013-07-19 18:54:00,
2013-07-19 14:59:00,86.5,76.0,29.95,WNW,286,0.0,3.0,71,0.00,,---,0.00,1104.00,VWS V14.01,2013-07-19 18:59:00,
2013-07-19 15:04:00,86.7,75.3,29.95,West,260,1.0,6.0,69,0.00,,---,0.00,1086.00,VWS V14.01,2013-07-19 19:04:00,
2013-07-19 15:09:00,86.4,75.0,29.94,SW,232,0.0,1.0,69,0.00,,---,0.00,258.00,VWS V14.01,2013-07-19 19:09:00,
2013-07-19 15:14:00,85.9,75.4,29.94,WNW,296,0.0,3.0,71,0.00,,---,0.00,364.00,VWS V14.01,2013-07-19 19:14:00,
2013-07-19 15:19:00,85.8,75.7,29.94,WNW,293,0.0,1.0,72,0.00,,---,0.00,454.00,VWS V14.01,2013-07-19 19:19:00,
2013-07-19 15:25:00,85.7,74.8,29.94,WNW,292,0.0,2.0,70,0.00,,---,0.00,316.00,VWS V14.01,2013-07-19 19:25:00,
2013-07-19 15:30:00,85.6,76.0,29.93,SW,222,3.0,3.0,73,0.00,,---,0.00,626.00,VWS V14.01,2013-07-19 19:30:00,
2013-07-19 15:35:00,85.3,74.4,29.93,SW,234,0.0,5.0,70,0.00,,---,0.00,701.00,VWS V14.01,2013-07-19 19:35:00,
2013-07-19 15:40:00,85.4,75.3,29.93,SW,232,0.0,4.0,72,0.00,,---,0.00,795.00,VWS V14.01,2013-07-19 19:40:00,
2013-07-19 15:45:00,85.8,75.3,29.92,West,277,0.0,5.0,71,0.00,,---,0.00,884.00,VWS V14.01,2013-07-19 19:45:00,
2013-07-19 15:46:00,85.9,75.8,29.92,West,272,1.0,5.0,72,0.00,,---,0.00,884.00,VWS V14.01,2013-07-19 19:46:00,
2013-07-19 15:51:00,86.2,76.5,29.92,WSW,240,3.0,5.0,73,0.00,,---,0.00,807.00,VWS V14.01,2013-07-19 19:51:00,
2013-07-19 15:57:00,86.5,75.6,29.92,WSW,247,0.0,5.0,70,0.00,,---,0.00,763.00,VWS V14.01,2013-07-19 19:57:00,
2013-07-19 16:02:00,86.7,74.9,29.92,SW,229,2.0,6.0,68,0.00,,---,0.00,823.00,VWS V14.01,2013-07-19 20:02:00,
2013-07-19 16:07:00,86.6,75.2,29.92,SW,227,4.0,6.0,69,0.00,,---,0.00,867.00,VWS V14.01,2013-07-19 20:07:00,
2013-07-19 16:12:00,86.8,75.4,29.91,West,280,0.0,4.0,69,0.00,,---,0.00,879.00,VWS V14.01,2013-07-19 20:12:00,
2013-07-19 16:17:00,86.8,75.8,29.91,SW,232,1.0,6.0,70,0.00,,---,0.00,733.00,VWS V14.01,2013-07-19 20:17:00,
2013-07-19 16:22:00,86.7,76.2,29.91,WSW,238,1.0,3.0,71,0.00,,---,0.00,875.00,VWS V14.01,2013-07-19 20:22:00,
2013-07-19 16:27:00,87.1,74.8,29.91,WSW,238,1.0,3.0,67,0.00,,---,0.00,853.00,VWS V14.01,2013-07-19 20:27:00,
2013-07-19 16:32:00,87.5,76.5,29.91,WSW,238,0.0,2.0,70,0.00,,---,0.00,819.00,VWS V14.01,2013-07-19 20:32:00,
2013-07-19 16:37:00,87.8,75.9,29.91,WSW,238,2.0,5.0,68,0.00,,---,0.00,784.00,VWS V14.01,2013-07-19 20:37:00,
2013-07-19 16:43:00,87.5,75.6,29.91,WSW,238,2.0,5.0,68,0.00,,---,0.00,884.00,VWS V14.01,2013-07-19 20:43:00,
2013-07-19 16:48:00,87.2,75.4,29.91,WSW,238,2.0,5.0,68,0.00,,---,0.00,265.00,VWS V14.01,2013-07-19 20:48:00,
2013-07-19 16:53:00,87.1,76.1,29.90,WSW,238,2.0,3.0,70,0.00,,---,0.00,821.00,VWS V14.01,2013-07-19 20:53:00,
2013-07-19 16:58:00,87.1,73.9,29.90,WSW,237,0.0,5.0,65,0.00,,---,0.00,299.00,VWS V14.01,2013-07-19 20:58:00,
2013-07-19 17:03:00,87.2,75.8,29.90,WSW,243,1.0,3.0,69,0.00,,---,0.00,791.00,VWS V14.01,2013-07-19 21:03:00,
2013-07-19 17:08:00,87.2,76.2,29.90,NNW,330,0.0,3.0,70,0.00,,---,0.00,775.00,VWS V14.01,2013-07-19 21:08:00,
2013-07-19 17:13:00,87.6,76.2,29.90,West,265,1.0,4.0,69,0.00,,---,0.00,763.00,VWS V14.01,2013-07-19 21:13:00,
2013-07-19 17:18:00,87.8,75.5,29.90,WSW,248,1.0,4.0,67,0.00,,---,0.00,756.00,VWS V14.01,2013-07-19 21:18:00,
2013-07-19 17:24:00,87.0,74.3,29.90,SW,233,0.0,4.0,66,0.00,,---,0.00,745.00,VWS V14.01,2013-07-19 21:24:00,
2013-07-19 17:29:00,87.0,75.2,29.89,SW,233,0.0,1.0,68,0.00,,---,0.00,714.00,VWS V14.01,2013-07-19 21:29:00,
2013-07-19 17:34:00,87.2,74.5,29.89,West,271,0.0,5.0,66,0.00,,---,0.00,726.00,VWS V14.01,2013-07-19 21:34:00,
2013-07-19 17:39:00,87.6,76.2,29.89,NW,315,0.0,4.0,69,0.00,,---,0.00,670.00,VWS V14.01,2013-07-19 21:39:00,
2013-07-19 17:44:00,87.6,75.3,29.89,WSW,251,1.0,4.0,67,0.00,,---,0.00,559.00,VWS V14.01,2013-07-19 21:44:00,
2013-07-19 17:49:00,87.1,75.7,29.89,WSW,240,1.0,3.0,69,0.00,,---,0.00,221.00,VWS V14.01,2013-07-19 21:49:00,
2013-07-19 17:54:00,86.6,75.7,29.89,WSW,240,0.0,3.0,70,0.00,,---,0.00,193.00,VWS V14.01,2013-07-19 21:54:00,
2013-07-19 17:59:00,86.2,75.7,29.89,WSW,240,0.0,0.0,71,0.00,,---,0.00,192.00,VWS V14.01,2013-07-19 21:59:00,
2013-07-19 18:04:00,86.0,76.3,29.89,WSW,240,0.0,0.0,73,0.00,,---,0.00,176.00,VWS V14.01,2013-07-19 22:04:00,
2013-07-19 18:10:00,86.0,75.5,29.89,WSW,240,0.0,1.0,71,0.00,,---,0.00,462.00,VWS V14.01,2013-07-19 22:10:00,
2013-07-19 18:15:00,86.2,76.1,29.89,WSW,240,0.0,1.0,72,0.00,,---,0.00,524.00,VWS V14.01,2013-07-19 22:15:00,
2013-07-19 18:20:00,86.5,76.4,29.89,WSW,240,0.0,2.0,72,0.00,,---,0.00,485.00,VWS V14.01,2013-07-19 22:20:00,
2013-07-19 18:25:00,86.3,76.6,29.89,WSW,240,0.0,2.0,73,0.00,,---,0.00,209.00,VWS V14.01,2013-07-19 22:25:00,
2013-07-19 18:30:00,86.2,76.5,29.90,WSW,240,0.0,1.0,73,0.00,,---,0.00,380.00,VWS V14.01,2013-07-19 22:30:00,
2013-07-19 18:35:00,86.1,76.0,29.89,WSW,240,0.0,2.0,72,0.00,,---,0.00,156.00,VWS V14.01,2013-07-19 22:35:00,
2013-07-19 18:40:00,85.9,76.7,29.89,WSW,240,0.0,1.0,74,0.00,,---,0.00,281.00,VWS V14.01,2013-07-19 22:40:00,
2013-07-19 18:45:00,85.8,76.2,29.89,WSW,240,0.0,1.0,73,0.00,,---,0.00,171.00,VWS V14.01,2013-07-19 22:45:00,
2013-07-19 18:50:00,85.8,77.4,29.89,WSW,240,0.0,0.0,76,0.00,,---,0.00,171.00,VWS V14.01,2013-07-19 22:50:00,
2013-07-19 18:56:00,85.6,76.8,29.89,WSW,240,0.0,0.0,75,0.00,,---,0.00,169.00,VWS V14.01,2013-07-19 22:56:00,
2013-07-19 19:01:00,85.4,76.2,29.89,WSW,240,0.0,0.0,74,0.00,,---,0.00,132.00,VWS V14.01,2013-07-19 23:01:00,
2013-07-19 19:06:00,85.0,75.8,29.89,WSW,240,0.0,0.0,74,0.00,,---,0.00,125.00,VWS V14.01,2013-07-19 23:06:00,
2013-07-19 19:11:00,84.4,76.0,29.89,WSW,240,0.0,0.0,76,0.00,,---,0.00,116.00,VWS V14.01,2013-07-19 23:11:00,
2013-07-19 19:16:00,83.9,76.3,29.88,WSW,240,0.0,0.0,78,0.00,,---,0.00,125.00,VWS V14.01,2013-07-19 23:16:00,
2013-07-19 19:21:00,83.5,76.7,29.88,WSW,240,0.0,0.0,80,0.00,,---,0.00,139.00,VWS V14.01,2013-07-19 23:21:00,
2013-07-19 19:26:00,83.3,76.5,29.89,WSW,240,0.0,0.0,80,0.00,,---,0.00,141.00,VWS V14.01,2013-07-19 23:26:00,
2013-07-19 19:31:00,83.1,76.7,29.89,WSW,240,0.0,0.0,81,0.00,,---,0.00,121.00,VWS V14.01,2013-07-19 23:31:00,
2013-07-19 19:37:00,83.0,77.3,29.88,WSW,240,0.0,0.0,83,0.00,,---,0.00,104.00,VWS V14.01,2013-07-19 23:37:00,
2013-07-19 19:42:00,82.8,76.8,29.89,WSW,240,0.0,0.0,82,0.00,,---,0.00,91.00,VWS V14.01,2013-07-19 23:42:00,
2013-07-19 19:47:00,82.5,76.8,29.89,WSW,240,0.0,0.0,83,0.00,,---,0.00,74.00,VWS V14.01,2013-07-19 23:47:00,
2013-07-19 19:52:00,82.1,76.1,29.89,WSW,240,0.0,0.0,82,0.00,,---,0.00,62.00,VWS V14.01,2013-07-19 23:52:00,
2013-07-19 19:57:00,81.6,75.6,29.89,WSW,240,0.0,0.0,82,0.00,,---,0.00,54.00,VWS V14.01,2013-07-19 23:57:00,
2013-07-19 20:02:00,81.0,75.3,29.89,WSW,240,0.0,0.0,83,0.00,,---,0.00,47.00,VWS V14.01,2013-07-20 00:02:00,
2013-07-19 20:07:00,80.5,74.9,29.89,WSW,240,0.0,1.0,83,0.00,,---,0.00,40.00,VWS V14.01,2013-07-20 00:07:00,
2013-07-19 20:13:00,80.1,74.5,29.89,WSW,240,0.0,1.0,83,0.00,,---,0.00,35.00,VWS V14.01,2013-07-20 00:13:00,
2013-07-19 20:18:00,79.8,74.5,29.89,WSW,240,0.0,1.0,84,0.00,,---,0.00,28.00,VWS V14.01,2013-07-20 00:18:00,
2013-07-19 20:23:00,79.7,74.4,29.90,WSW,240,0.0,0.0,84,0.00,,---,0.00,21.00,VWS V14.01,2013-07-20 00:23:00,
2013-07-19 20:28:00,79.5,74.2,29.90,WSW,240,0.0,0.0,84,0.00,,---,0.00,16.00,VWS V14.01,2013-07-20 00:28:00,
2013-07-19 20:33:00,79.2,73.9,29.90,WSW,240,0.0,0.0,84,0.00,,---,0.00,11.00,VWS V14.01,2013-07-20 00:33:00,
2013-07-19 20:38:00,78.8,73.9,29.90,WSW,240,0.0,0.0,85,0.00,,---,0.00,7.00,VWS V14.01,2013-07-20 00:38:00,
2013-07-19 20:43:00,78.4,73.5,29.90,WSW,240,0.0,1.0,85,0.00,,---,0.00,5.00,VWS V14.01,2013-07-20 00:43:00,
2013-07-19 20:44:00,78.4,73.5,29.90,WSW,240,0.0,1.0,85,0.00,,---,0.00,5.00,VWS V14.01,2013-07-20 00:44:00,
2013-07-19 20:49:00,78.0,73.1,29.90,WSW,240,0.0,0.0,85,0.00,,---,0.00,5.00,VWS V14.01,2013-07-20 00:49:00,
2013-07-19 20:54:00,77.8,73.3,29.91,WSW,240,0.0,0.0,86,0.00,,---,0.00,0.00,VWS V14.01,2013-07-20 00:54:00,
2013-07-19 20:59:00,77.6,73.4,29.91,WSW,240,0.0,0.0,87,0.00,,---,0.00,0.00,VWS V14.01,2013-07-20 00:59:00,
2013-07-19 21:04:00,77.4,73.2,29.91,WSW,240,0.0,0.0,87,0.00,,---,0.00,0.00,VWS V14.01,2013-07-20 01:04:00,
2013-07-19 21:09:00,77.2,73.0,29.91,WSW,240,0.0,0.0,87,0.00,,---,0.00,0.00,VWS V14.01,2013-07-20 01:09:00,
2013-07-19 21:14:00,77.1,72.9,29.91,WSW,240,0.0,0.0,87,0.00,,---,0.00,0.00,VWS V14.01,2013-07-20 01:14:00,
2013-07-19 21:19:00,77.1,72.9,29.92,WSW,240,0.0,0.0,87,0.00,,---,0.00,0.00,VWS V14.01,2013-07-20 01:19:00,
2013-07-19 21:24:00,76.9,73.1,29.91,WSW,240,0.0,0.0,88,0.00,,---,0.00,0.00,VWS V14.01,2013-07-20 01:24:00,
2013-07-19 21:30:00,76.7,72.9,29.92,WSW,240,0.0,0.0,88,0.00,,---,0.00,0.00,VWS V14.01,2013-07-20 01:30:00,
2013-07-19 21:35:00,76.4,72.6,29.92,WSW,240,0.0,0.0,88,0.00,,---,0.00,0.00,VWS V14.01,2013-07-20 01:35:00,
2013-07-19 21:40:00,76.1,72.6,29.92,WSW,240,0.0,0.0,89,0.00,,---,0.00,0.00,VWS V14.01,2013-07-20 01:40:00,
2013-07-19 21:45:00,75.8,72.3,29.92,WSW,240,0.0,0.0,89,0.00,,---,0.00,0.00,VWS V14.01,2013-07-20 01:45:00,
2013-07-19 21:50:00,75.7,72.6,29.92,WSW,240,1.0,1.0,90,0.00,,---,0.00,0.00,VWS V14.01,2013-07-20 01:50:00,
2013-07-19 21:55:00,75.6,72.5,29.92,WSW,240,0.0,1.0,90,0.00,,---,0.00,0.00,VWS V14.01,2013-07-20 01:55:00,
2013-07-19 22:01:00,75.4,72.3,29.93,WSW,240,0.0,0.0,90,0.00,,---,0.00,0.00,VWS V14.01,2013-07-20 02:01:00,
2013-07-19 22:06:00,75.2,72.1,29.92,WSW,240,0.0,0.0,90,0.00,,---,0.00,0.00,VWS V14.01,2013-07-20 02:06:00,
2013-07-19 22:11:00,75.0,72.2,29.93,WSW,240,0.0,1.0,91,0.00,,---,0.00,0.00,VWS V14.01,2013-07-20 02:11:00,
2013-07-19 22:16:00,74.8,72.0,29.93,WSW,240,0.0,1.0,91,0.00,,---,0.00,0.00,VWS V14.01,2013-07-20 02:16:00,
2013-07-19 22:21:00,74.6,72.1,29.93,WSW,240,0.0,0.0,92,0.00,,---,0.00,0.00,VWS V14.01,2013-07-20 02:21:00,
2013-07-19 22:26:00,74.6,72.1,29.94,WSW,240,0.0,0.0,92,0.00,,---,0.00,0.00,VWS V14.01,2013-07-20 02:26:00,
2013-07-19 22:31:00,74.6,72.1,29.95,WSW,240,0.0,0.0,92,0.00,,---,0.00,0.00,VWS V14.01,2013-07-20 02:31:00,
2013-07-19 22:37:00,74.6,72.1,29.95,WSW,240,0.0,1.0,92,0.00,,---,0.00,0.00,VWS V14.01,2013-07-20 02:37:00,
2013-07-19 22:42:00,74.7,72.2,29.96,WSW,240,0.0,0.0,92,0.00,,---,0.00,0.00,VWS V14.01,2013-07-20 02:42:00,
2013-07-19 22:47:00,74.8,72.3,29.96,WNW,291,5.0,5.0,92,0.00,,---,0.00,0.00,VWS V14.01,2013-07-20 02:47:00,
2013-07-19 22:52:00,74.4,69.9,29.95,WSW,250,3.0,6.0,86,0.00,,---,0.00,0.00,VWS V14.01,2013-07-20 02:52:00,
2013-07-19 22:57:00,74.2,69.8,29.96,WSW,252,0.0,6.0,86,0.00,,---,0.00,0.00,VWS V14.01,2013-07-20 02:57:00,
2013-07-19 23:02:00,74.1,69.7,29.96,WSW,247,0.0,4.0,86,0.00,,---,0.00,0.00,VWS V14.01,2013-07-20 03:02:00,
2013-07-19 23:07:00,74.0,69.9,29.96,West,261,0.0,4.0,87,0.00,,---,0.00,0.00,VWS V14.01,2013-07-20 03:07:00,
2013-07-19 23:12:00,73.8,69.7,29.96,West,261,0.0,1.0,87,0.00,,---,0.00,0.00,VWS V14.01,2013-07-20 03:12:00,
2013-07-19 23:17:00,73.7,69.9,29.96,West,261,0.0,1.0,88,0.00,,---,0.00,0.00,VWS V14.01,2013-07-20 03:17:00,
2013-07-19 23:23:00,73.4,70.0,29.96,North,5,0.0,1.0,89,0.00,,---,0.00,0.00,VWS V14.01,2013-07-20 03:23:00,
2013-07-19 23:28:00,73.0,69.2,29.97,North,5,0.0,1.0,88,0.00,,---,0.00,0.00,VWS V14.01,2013-07-20 03:28:00,
2013-07-19 23:33:00,72.7,69.6,29.96,North,5,0.0,0.0,90,0.00,,---,0.00,0.00,VWS V14.01,2013-07-20 03:33:00,
2013-07-19 23:38:00,72.4,69.3,29.96,North,5,0.0,0.0,90,0.00,,---,0.00,0.00,VWS V14.01,2013-07-20 03:38:00,
2013-07-19 23:43:00,72.1,69.3,29.95,North,5,0.0,0.0,91,0.00,,---,0.00,0.00,VWS V14.01,2013-07-20 03:43:00,
2013-07-19 23:48:00,71.8,69.0,29.95,North,5,0.0,0.0,91,0.01,,---,0.01,0.00,VWS V14.01,2013-07-20 03:48:00,
2013-07-19 23:53:00,71.5,69.1,29.94,North,5,0.0,0.0,92,0.01,,---,0.01,0.00,VWS V14.01,2013-07-20 03:53:00,
2013-07-19 23:58:00,71.2,68.8,29.94,North,5,0.0,0.0,92,0.01,,---,0.01,0.00,VWS V14.01,2013-07-20 03:58:00,